Torna al catalogo

PROPCUBE 3

AttivoScienzaLEO
NORAD 40973·PAYLOAD·🇺🇸 United States

Lanciato Oct 8, 2015 da Vandenberg Space Force Base

Loading…

Prossimi Passaggi (prossime 24 ore)

TLE

AggiornatoSource: Space-Track

Epoca: Sep 14, 2026, 04:56 UTC

1 40973U 15058K   26257.20616298  .00001683  00000-0  14470-3 0  9995
2 40973  64.7685 334.2811 0131215  26.1438 334.6222 14.94761111128109

Traccia PROPCUBE 3 in tempo reale con AllMySat

Download on the App Store